Weather History for Valdez Airport, AK

Change the Weather History Date:

Thursday, July 25, 2013

  Actual Average Record
Temperature  
Mean Temperature 56 °F -  
Max Temperature 62 °F 61 °F 76 °F (1987)
Min Temperature 50 °F 48 °F 42 °F (1965)
Degree Days  
Heating Degree Days 9    
Growing Degree Days 6 (Base 50)    
Moisture  
Dew Point 51 °F    
Average Humidity 84    
Maximum Humidity 94    
Minimum Humidity 72    
Precipitation  
Precipitation 0.09 in - - ()
Sea Level Pressure  
Sea Level Pressure 30.07 in    
Wind  
Wind Speed 4 mph (East)    
Max Wind Speed 9 mph    
Max Gust Speed -    
Visibility 8 miles    
Events      
Averages and records for this station are not official NWS values.
T = Trace of Precipitation, MM = Missing Value Source: NWS Daily Summary

Daily Weather History Graph

Daily Weather History Graph

Search for Another Location

Airport:

Trip Planner

Search our weather history database for the weather conditions in past years. The results will help you decide how hot, cold, wet, or windy it might be!

Date:

Astronomy

Jul. 25, 2013 Rise Set
Actual Time 5:01 AM AKDT 10:39 PM AKDT
Civil Twilight 3:47 AM AKDT 11:52 PM AKDT
Nautical Twilight Sun does not rise 1:19 AM AKDT
Astronomical Twilight Sun does not rise Sun does not rise
Moon 10:50 PM AKDT (7/25) 10:07 AM AKDT (7/25)
Length of Visible Light 20h 04m
Length of Day
17h 38m
Waning Gibbous, 87% of the Moon is Illuminated
Jul 25
Waning Gibbous
Jul 29
Last Quarter
Aug 6
New
Aug 14
First Quarter
Aug 20
Full

Hourly Weather History & Observations

Time (AKDT) Temp. Dew Point Humidity Pressure Visibility Wind Dir Wind Speed Gust Speed Precip Events Conditions
12:16 AM 57.2 °F 53.6 °F 88% 30.02 in 10.0 mi East 4.6 mph - N/A   Overcast
12:36 AM 55.4 °F 48.2 °F 77% 30.02 in 10.0 mi Calm Calm - N/A   Overcast
12:56 AM 55.4 °F 48.2 °F 77% 30.03 in 10.0 mi East 4.6 mph - N/A   Overcast
1:16 AM 55.4 °F 50.0 °F 82% 30.03 in 10.0 mi East 4.6 mph - N/A   Overcast
1:36 AM 55.4 °F 48.2 °F 77% 30.03 in 10.0 mi East 6.9 mph - N/A   Overcast
1:56 AM 57.2 °F 51.8 °F 82% 30.03 in 10.0 mi Calm Calm - N/A   Overcast
2:16 AM 55.4 °F 50.0 °F 82% 30.03 in 10.0 mi East 4.6 mph - N/A   Overcast
2:36 AM 53.6 °F 50.0 °F 88% 30.04 in 10.0 mi East 4.6 mph - N/A   Overcast
2:56 AM 53.6 °F 50.0 °F 88% 30.03 in 10.0 mi East 4.6 mph - 0.01 in   Overcast
3:16 AM 53.6 °F 48.2 °F 82% 30.03 in 10.0 mi East 3.5 mph - N/A   Overcast
3:36 AM 51.8 °F 48.2 °F 88% 30.03 in 10.0 mi East 4.6 mph - 0.01 in   Overcast
3:56 AM 51.8 °F 48.2 °F 88% 30.03 in 10.0 mi East 4.6 mph - 0.02 in   Overcast
4:16 AM 51.8 °F 48.2 °F 88% 30.03 in 10.0 mi East 6.9 mph - 0.01 in   Overcast
4:36 AM 51.8 °F 48.2 °F 88% 30.03 in 10.0 mi East 3.5 mph - 0.01 in   Overcast
4:56 AM 51.8 °F 48.2 °F 88% 30.03 in 10.0 mi East 5.8 mph - 0.02 in   Overcast
5:16 AM 51.8 °F 48.2 °F 88% 30.03 in 10.0 mi East 5.8 mph - N/A   Overcast
5:36 AM 51.8 °F 48.2 °F 88% 30.03 in 10.0 mi East 4.6 mph - N/A   Overcast
5:56 AM 51.8 °F 48.2 °F 88% 30.04 in 5.0 mi East 4.6 mph - 0.01 in   Overcast
6:16 AM 50.0 °F 46.4 °F 87% 30.04 in 5.0 mi East 8.1 mph - N/A   Overcast
6:36 AM 51.8 °F 48.2 °F 88% 30.04 in 5.0 mi NE 4.6 mph - 0.01 in   Overcast
6:56 AM 51.8 °F 48.2 °F 88% 30.04 in 5.0 mi East 8.1 mph - 0.01 in   Overcast
7:16 AM 51.8 °F 48.2 °F 88% 30.04 in 5.0 mi Calm Calm - 0.01 in   Overcast
7:36 AM 51.8 °F 48.2 °F 88% 30.04 in 5.0 mi East 5.8 mph - 0.01 in   Overcast
7:56 AM 51.8 °F 48.2 °F 88% 30.04 in 5.0 mi East 4.6 mph - 0.02 in   Overcast
8:16 AM 51.8 °F 48.2 °F 88% 30.05 in 5.0 mi Calm Calm - N/A   Overcast
8:36 AM 51.8 °F 48.2 °F 88% 30.05 in 5.0 mi East 5.8 mph - N/A   Overcast
8:56 AM 51.8 °F 48.2 °F 88% 30.05 in 5.0 mi East 4.6 mph - N/A   Overcast
9:16 AM 51.8 °F 48.2 °F 88% 30.05 in 5.0 mi East 5.8 mph - N/A   Overcast
9:36 AM 53.6 °F 51.8 °F 94% 30.05 in 5.0 mi East 4.6 mph - N/A   Overcast
9:56 AM 53.6 °F 50.0 °F 88% 30.05 in 6.0 mi East 4.6 mph - N/A   Overcast
10:16 AM 53.6 °F 51.8 °F 94% 30.05 in 6.0 mi East 4.6 mph - N/A   Overcast
10:36 AM 53.6 °F 50.0 °F 88% 30.05 in 6.0 mi East 4.6 mph - N/A   Overcast
10:56 AM 55.4 °F 51.8 °F 88% 30.05 in 6.0 mi East 4.6 mph - N/A   Overcast
11:16 AM 55.4 °F 51.8 °F 88% 30.06 in 6.0 mi Calm Calm - N/A   Overcast
11:36 AM 57.2 °F 51.8 °F 82% 30.06 in 6.0 mi Calm Calm - N/A   Overcast
11:56 AM 57.2 °F 51.8 °F 82% 30.06 in 6.0 mi Calm Calm - N/A   Overcast
12:16 PM 57.2 °F 53.6 °F 88% 30.06 in 6.0 mi Calm Calm - N/A   Overcast
12:36 PM 59.0 °F 53.6 °F 82% 30.07 in 6.0 mi Calm Calm - N/A   Overcast
12:56 PM 59.0 °F 53.6 °F 82% 30.07 in 6.0 mi SE 4.6 mph - N/A   Overcast
1:16 PM 59.0 °F 53.6 °F 82% 30.07 in 6.0 mi East 3.5 mph - N/A   Overcast
1:36 PM 60.8 °F 53.6 °F 77% 30.07 in 6.0 mi Calm Calm - N/A   Overcast
1:56 PM 60.8 °F 53.6 °F 77% 30.07 in 9.0 mi Calm Calm - N/A   Overcast
2:16 PM 60.8 °F 55.4 °F 82% 30.07 in 9.0 mi Calm Calm - N/A   Overcast
2:36 PM 60.8 °F 55.4 °F 82% 30.07 in 9.0 mi Calm Calm - N/A   Overcast
2:56 PM 60.8 °F 53.6 °F 77% 30.07 in 10.0 mi ESE 3.5 mph - N/A   Overcast
3:16 PM 60.8 °F 55.4 °F 82% 30.07 in 10.0 mi Calm Calm - N/A   Overcast
3:36 PM 60.8 °F 55.4 °F 82% 30.07 in 10.0 mi Calm Calm - N/A   Overcast
3:56 PM 60.8 °F 55.4 °F 82% 30.07 in 10.0 mi WSW 4.6 mph - N/A   Mostly Cloudy
4:16 PM 60.8 °F 55.4 °F 82% 30.08 in 10.0 mi WNW 3.5 mph - N/A   Mostly Cloudy
4:36 PM 60.8 °F 55.4 °F 82% 30.08 in 10.0 mi West 5.8 mph - N/A   Mostly Cloudy
4:56 PM 60.8 °F 55.4 °F 82% 30.08 in 10.0 mi Calm Calm - N/A   Mostly Cloudy
5:16 PM 62.6 °F 53.6 °F 72% 30.08 in 10.0 mi Calm Calm - N/A   Mostly Cloudy
5:36 PM 60.8 °F 55.4 °F 82% 30.09 in 10.0 mi WSW 6.9 mph - N/A   Mostly Cloudy
5:56 PM 60.8 °F 53.6 °F 77% 30.09 in 10.0 mi West 9.2 mph - N/A   Mostly Cloudy
6:16 PM 60.8 °F 53.6 °F 77% 30.09 in 10.0 mi SSE 3.5 mph - N/A   Mostly Cloudy
6:36 PM 60.8 °F 53.6 °F 77% 30.10 in 10.0 mi West 3.5 mph - N/A   Mostly Cloudy
6:56 PM 60.8 °F 53.6 °F 77% 30.10 in 10.0 mi WSW 4.6 mph - N/A   Overcast
7:16 PM 59.0 °F 53.6 °F 82% 30.10 in 10.0 mi Calm Calm - N/A   Overcast
7:36 PM 59.0 °F 53.6 °F 82% 30.10 in 10.0 mi West 4.6 mph - N/A   Overcast
7:56 PM 59.0 °F 53.6 °F 82% 30.11 in 5.0 mi West 4.6 mph - N/A   Overcast
8:16 PM 57.2 °F 53.6 °F 88% 30.11 in 5.0 mi Calm Calm - N/A   Overcast
8:36 PM 55.4 °F 51.8 °F 88% 30.12 in 5.0 mi East 4.6 mph - N/A   Overcast
8:56 PM 53.6 °F 51.8 °F 94% 30.12 in 5.0 mi East 5.8 mph - N/A   Overcast
9:16 PM 53.6 °F 51.8 °F 94% 30.12 in 5.0 mi East 3.5 mph - N/A   Overcast
9:36 PM 53.6 °F 48.2 °F 82% 30.13 in 5.0 mi East 4.6 mph - N/A   Overcast
9:56 PM 53.6 °F 48.2 °F 82% 30.13 in 5.0 mi East 4.6 mph - N/A   Overcast
10:16 PM 53.6 °F 48.2 °F 82% 30.13 in 10.0 mi East 3.5 mph - N/A   Overcast
10:36 PM 53.6 °F 48.2 °F 82% 30.14 in 10.0 mi Calm Calm - N/A   Overcast
10:56 PM 51.8 °F 48.2 °F 88% 30.14 in 10.0 mi East 3.5 mph - N/A   Overcast
11:16 PM 53.6 °F 48.2 °F 82% 30.14 in 10.0 mi East 5.8 mph - N/A   Overcast
11:36 PM 51.8 °F 48.2 °F 88% 30.14 in 7.0 mi Calm Calm - N/A   Overcast
11:56 PM 51.8 °F 46.4 °F 82% 30.15 in 8.0 mi East 5.8 mph - N/A   Overcast